VTD519 UWSK-UWSK

Flight info

Callsign VTD519
Flight time 0h 5m
Altitude 1200
Route RA/012
Aircraft DA40/L-S/C

Departure

Time 2026-05-04 15:32
Airport Krasny Kut Airport (UWSK)

Arrival

Time 2026-05-04 15:37
Airport Krasny Kut Airport (UWSK)
Time Latitude Longitude Altitude Speed Heading
2026-05-04 15:07 50.95565 46.94464 160 ft 0 kts 172°
2026-05-04 15:20 50.95565 46.94463 162 ft 0 kts 172°
2026-05-04 15:24 50.95565 46.94464 157 ft 0 kts 171°
2026-05-04 15:25 50.95555 46.94462 163 ft 3 kts 204°
2026-05-04 15:25 50.95550 46.94449 163 ft 1 kts 287°
2026-05-04 15:25 50.95574 46.94429 161 ft 4 kts 320°
2026-05-04 15:26 50.95610 46.94355 160 ft 4 kts
2026-05-04 15:26 50.95641 46.94372 160 ft 5 kts 352°
2026-05-04 15:26 50.95653 46.94348 160 ft 0 kts 304°
2026-05-04 15:30 50.95687 46.94324 161 ft 0 kts 28°
2026-05-04 15:30 50.96027 46.94599 183 ft 67 kts 28°
2026-05-04 15:31 50.96916 46.95337 534 ft 75 kts 22°
2026-05-04 15:31 50.97406 46.95758 633 ft 90 kts 27°
2026-05-04 15:32 50.98715 46.94625 1099 ft 94 kts 297°
2026-05-04 15:32 50.99202 46.92728 1261 ft 92 kts 288°
2026-05-04 15:33 50.98268 46.91301 1211 ft 113 kts 205°
2026-05-04 15:34 50.96089 46.89692 1171 ft 113 kts 207°
2026-05-04 15:34 50.95409 46.89204 1201 ft 103 kts 204°
2026-05-04 15:34 50.94085 46.88539 1208 ft 98 kts 168°
2026-05-04 15:35 50.93317 46.90204 1108 ft 91 kts 111°
2026-05-04 15:35 50.93072 46.91126 996 ft 89 kts 108°
2026-05-04 15:35 50.93022 46.92022 944 ft 79 kts 58°
2026-05-04 15:36 50.93948 46.93015 704 ft 83 kts 21°
2026-05-04 15:36 50.94478 46.93372 582 ft 85 kts 21°
2026-05-04 15:36 50.95021 46.93791 415 ft 87 kts 25°
2026-05-04 15:37 50.95525 46.94192 215 ft 78 kts 24°
2026-05-04 15:37 50.95941 46.94509 168 ft 48 kts 27°
2026-05-04 15:37 50.96040 46.94589 171 ft 0 kts 28°
2026-05-04 15:38 50.96101 46.94631 172 ft 32 kts 23°
2026-05-04 15:38 50.96441 46.94888 213 ft 67 kts 15°
2026-05-04 15:38 50.96850 46.95279 384 ft 72 kts 26°
2026-05-04 15:38 50.97286 46.95670 585 ft 71 kts 26°
2026-05-04 15:39 50.97713 46.96081 762 ft 74 kts 24°
2026-05-04 15:39 50.98191 46.96359 912 ft 75 kts 349°
2026-05-04 15:39 50.98838 46.94828 1153 ft 94 kts 297°
2026-05-04 15:40 50.99109 46.93882 1206 ft 95 kts 297°
2026-05-04 15:40 50.99374 46.92886 1178 ft 101 kts 294°
2026-05-04 15:40 50.99251 46.91795 1156 ft 108 kts 235°
2026-05-04 15:40 50.98611 46.91125 1128 ft 110 kts 209°
2026-05-04 15:41 50.97936 46.90605 1135 ft 109 kts 207°
2026-05-04 15:41 50.97261 46.90095 1171 ft 106 kts 207°
2026-05-04 15:41 50.96618 46.89602 1230 ft 99 kts 206°
2026-05-04 15:41 50.95984 46.89184 1243 ft 98 kts 203°
2026-05-04 15:42 50.95365 46.88738 1238 ft 98 kts 205°
2026-05-04 15:42 50.94752 46.88288 1244 ft 98 kts 205°
2026-05-04 15:42 50.94109 46.87951 1246 ft 99 kts 180°
2026-05-04 15:42 50.93539 46.88495 1185 ft 100 kts 122°
2026-05-04 15:43 50.93195 46.89479 1093 ft 103 kts 114°
2026-05-04 15:43 50.92911 46.90440 1058 ft 88 kts 110°
2026-05-04 15:43 50.92689 46.91302 965 ft 83 kts 106°
2026-05-04 15:43 50.92863 46.92081 838 ft 79 kts 31°
2026-05-04 15:44 50.93346 46.92493 728 ft 79 kts 21°
2026-05-04 15:44 50.93849 46.92849 614 ft 79 kts 20°
2026-05-04 15:44 50.94346 46.93241 484 ft 80 kts 25°
2026-05-04 15:44 50.94838 46.93639 359 ft 81 kts 24°
2026-05-04 15:45 50.95343 46.94033 230 ft 79 kts 24°
2026-05-04 15:45 50.95809 46.94414 169 ft 69 kts 24°
2026-05-04 15:45 50.96083 46.94637 171 ft 8 kts 24°
2026-05-04 15:45 50.96242 46.94743 174 ft 49 kts 24°
2026-05-04 15:46 50.96638 46.95056 284 ft 69 kts 27°
2026-05-04 15:46 50.97065 46.95449 460 ft 71 kts 24°
2026-05-04 15:46 50.97489 46.95790 692 ft 67 kts 21°
2026-05-04 15:46 50.97948 46.96060 841 ft 72 kts 356°
2026-05-04 15:47 50.98318 46.95537 955 ft 85 kts 293°
2026-05-04 15:47 50.98580 46.94599 1035 ft 97 kts 295°
2026-05-04 15:47 50.98854 46.93608 1167 ft 101 kts 295°
2026-05-04 15:47 50.99132 46.92566 1254 ft 106 kts 296°
2026-05-04 15:48 50.99117 46.91404 1229 ft 111 kts 247°
2026-05-04 15:48 50.98537 46.90570 1168 ft 118 kts 211°
2026-05-04 15:48 50.97154 46.89314 1176 ft 112 kts 212°
2026-05-04 15:49 50.96510 46.88733 1218 ft 104 kts 211°
2026-05-04 15:49 50.95886 46.88181 1221 ft 101 kts 211°
2026-05-04 15:49 50.95259 46.87658 1213 ft 102 kts 207°
2026-05-04 15:49 50.94621 46.87188 1226 ft 101 kts 205°
2026-05-04 15:50 50.93956 46.87196 1242 ft 101 kts 150°
2026-05-04 15:50 50.93526 46.88075 1189 ft 104 kts 115°
2026-05-04 15:50 50.93189 46.89077 1102 ft 99 kts 114°
2026-05-04 15:50 50.92903 46.89971 1004 ft 87 kts 114°
2026-05-04 15:51 50.92685 46.90802 923 ft 79 kts 108°
2026-05-04 15:51 50.92552 46.91633 849 ft 77 kts 77°
2026-05-04 15:51 50.92889 46.92193 770 ft 72 kts 20°
2026-05-04 15:51 50.93356 46.92524 669 ft 74 kts 21°
2026-05-04 15:52 50.93836 46.92871 566 ft 78 kts 22°
2026-05-04 15:52 50.94328 46.93253 448 ft 79 kts 23°
2026-05-04 15:52 50.94816 46.93621 334 ft 78 kts 23°
2026-05-04 15:52 50.95296 46.94004 214 ft 74 kts 25°
2026-05-04 15:53 50.95727 46.94356 166 ft 64 kts 22°
2026-05-04 15:53 50.96046 46.94589 171 ft 49 kts 22°
2026-05-04 15:53 50.96438 46.94905 256 ft 72 kts 27°
2026-05-04 15:53 50.96876 46.95318 440 ft 75 kts 25°
2026-05-04 15:54 50.97326 46.95720 647 ft 74 kts 25°
2026-05-04 15:54 50.97836 46.95930 800 ft 80 kts 341°
2026-05-04 15:54 50.98195 46.95244 940 ft 90 kts 296°
2026-05-04 15:54 50.98451 46.94305 1096 ft 94 kts 292°
2026-05-04 15:55 50.98672 46.93326 1177 ft 98 kts 292°
2026-05-04 15:55 50.98921 46.92313 1168 ft 100 kts 295°
2026-05-04 15:55 50.98825 46.91240 1196 ft 103 kts 236°
2026-05-04 15:55 50.98223 46.90606 1205 ft 106 kts 210°
2026-05-04 15:56 50.97781 46.90244 1173 ft 110 kts 209°
2026-05-04 15:56 50.97083 46.89681 1112 ft 113 kts 209°
2026-05-04 15:56 50.96432 46.89173 1185 ft 101 kts 207°
2026-05-04 15:56 50.95598 46.88554 1197 ft 98 kts 207°
2026-05-04 15:57 50.95186 46.88233 1199 ft 97 kts 208°
2026-05-04 15:57 50.94561 46.87909 1193 ft 98 kts 175°
2026-05-04 15:57 50.94019 46.88481 1174 ft 97 kts 119°
2026-05-04 15:57 50.93678 46.89412 1108 ft 94 kts 115°
2026-05-04 15:58 50.93387 46.90314 996 ft 91 kts 113°
2026-05-04 15:58 50.93110 46.91205 892 ft 89 kts 113°
2026-05-04 15:58 50.93143 46.92079 817 ft 81 kts 48°
2026-05-04 15:58 50.93603 46.92641 639 ft 86 kts 26°
2026-05-04 15:59 50.94114 46.93073 535 ft 82 kts 24°
2026-05-04 15:59 50.94629 46.93463 411 ft 83 kts 24°
2026-05-04 15:59 50.95140 46.93885 287 ft 81 kts 24°
2026-05-04 15:59 50.95620 46.94271 197 ft 73 kts 24°
2026-05-04 16:00 50.96013 46.94575 170 ft 43 kts 22°
2026-05-04 16:00 50.96372 46.94843 229 ft 67 kts 27°
2026-05-04 16:00 50.96786 46.95281 395 ft 74 kts 26°
2026-05-04 16:00 50.97243 46.95675 608 ft 75 kts 24°
2026-05-04 16:01 50.97723 46.96049 754 ft 80 kts
2026-05-04 16:01 50.98218 46.95681 870 ft 90 kts 303°
2026-05-04 16:01 50.98498 46.94758 1005 ft 95 kts 295°
2026-05-04 16:01 50.98750 46.93775 1152 ft 97 kts 294°
2026-05-04 16:02 50.98988 46.92772 1213 ft 98 kts 294°
2026-05-04 16:02 50.98989 46.91705 1237 ft 103 kts 248°
2026-05-04 16:02 50.97737 46.90367 1175 ft 115 kts 210°
2026-05-04 16:03 50.97023 46.89742 1131 ft 117 kts 212°
2026-05-04 16:03 50.96364 46.89147 1188 ft 104 kts 212°
2026-05-04 16:03 50.95753 46.88634 1210 ft 99 kts 209°
2026-05-04 16:03 50.95145 46.88144 1219 ft 97 kts 208°
2026-05-04 16:04 50.94545 46.87653 1225 ft 96 kts 209°
2026-05-04 16:04 50.93444 46.88283 1147 ft 103 kts 116°
2026-05-04 16:04 50.93128 46.89304 1072 ft 98 kts 111°
2026-05-04 16:05 50.92890 46.90254 980 ft 89 kts 109°
2026-05-04 16:05 50.92670 46.91124 926 ft 82 kts 106°
2026-05-04 16:05 50.93174 46.92380 742 ft 81 kts 19°
2026-05-04 16:06 50.93702 46.92772 599 ft 85 kts 24°
2026-05-04 16:06 50.95074 46.93855 326 ft 81 kts 25°
2026-05-04 16:07 50.95739 46.94371 179 ft 77 kts 22°
2026-05-04 16:07 50.96948 46.95379 389 ft 78 kts 26°
2026-05-04 16:08 50.97419 46.95787 600 ft 77 kts 25°
2026-05-04 16:08 50.98686 46.94931 1018 ft 95 kts 298°
2026-05-04 16:09 50.99190 46.92947 1189 ft 100 kts 294°
2026-05-04 16:09 50.98580 46.91087 1151 ft 115 kts 206°
2026-05-04 16:10 50.97155 46.89904 1129 ft 111 kts 211°
2026-05-04 16:11 50.95316 46.88322 1229 ft 98 kts 210°
2026-05-04 16:11 50.94715 46.87836 1244 ft 98 kts 207°
2026-05-04 16:12 50.93022 46.88182 1226 ft 101 kts 113°
2026-05-04 16:12 50.92348 46.91070 973 ft 86 kts 102°
2026-05-04 16:13 50.92836 46.92297 826 ft 81 kts
2026-05-04 16:13 50.93929 46.92945 587 ft 85 kts 25°
2026-05-04 16:14 50.95010 46.93786 310 ft 85 kts 23°
2026-05-04 16:14 50.95933 46.94517 166 ft 51 kts 26°
2026-05-04 16:15 50.96035 46.94706 170 ft 0 kts 206°
2026-05-04 16:17 50.95961 46.94650 169 ft 11 kts 206°
2026-05-04 16:18 50.95675 46.94406 160 ft 15 kts 202°
2026-05-04 16:18 50.95597 46.94361 160 ft 11 kts 150°
2026-05-04 16:19 50.95561 46.94459 162 ft 0 kts 186°